Year,Month,Day,Hour,Minute,Value (Times are PST for temperature in C)
2011,04,29,00,00,4.80
2011,04,29,00,01,4.80
2011,04,29,00,02,4.80
2011,04,29,00,03,4.80
2011,04,29,00,04,4.80
2011,04,29,00,05,4.80
2011,04,29,00,06,4.80
2011,04,29,00,07,4.80
2011,04,29,00,08,4.80
2011,04,29,00,09,4.80
2011,04,29,00,10,4.80
2011,04,29,00,11,4.80
2011,04,29,00,12,4.80
2011,04,29,00,13,4.80
2011,04,29,00,14,4.80
2011,04,29,00,15,4.80
2011,04,29,00,16,4.80
2011,04,29,00,17,4.80
2011,04,29,00,18,4.80
2011,04,29,00,19,4.80
2011,04,29,00,20,4.80
2011,04,29,00,21,4.80
2011,04,29,00,22,4.80
2011,04,29,00,23,4.80
2011,04,29,00,24,4.80
2011,04,29,00,25,4.80
2011,04,29,00,26,4.80
2011,04,29,00,27,4.80
2011,04,29,00,28,4.80
2011,04,29,00,29,4.80
2011,04,29,00,30,4.80
2011,04,29,00,31,4.80
2011,04,29,00,32,4.80
2011,04,29,00,33,4.80
2011,04,29,00,34,4.70
2011,04,29,00,35,4.70
2011,04,29,00,36,4.70
2011,04,29,00,37,4.70
2011,04,29,00,38,4.70
2011,04,29,00,39,4.70
2011,04,29,00,40,4.70
2011,04,29,00,41,4.60
2011,04,29,00,42,4.60
2011,04,29,00,43,4.60
2011,04,29,00,44,4.60
2011,04,29,00,45,4.60
2011,04,29,00,46,4.60
2011,04,29,00,47,4.60
2011,04,29,00,48,4.60
2011,04,29,00,49,4.60
2011,04,29,00,50,4.60
2011,04,29,00,51,4.60
2011,04,29,00,52,4.60
2011,04,29,00,53,4.70
2011,04,29,00,54,4.70
2011,04,29,00,55,4.70
2011,04,29,00,56,4.70
2011,04,29,00,57,4.70
2011,04,29,00,58,4.60
2011,04,29,00,59,4.60
2011,04,29,01,00,4.70
2011,04,29,01,01,4.70
2011,04,29,01,02,4.70
2011,04,29,01,03,4.70
2011,04,29,01,04,4.70
2011,04,29,01,05,4.70
2011,04,29,01,06,4.70
2011,04,29,01,07,4.70
2011,04,29,01,08,4.70
2011,04,29,01,09,4.70
2011,04,29,01,10,4.70
2011,04,29,01,11,4.70
2011,04,29,01,12,4.70
2011,04,29,01,13,4.70
2011,04,29,01,14,4.70
2011,04,29,01,15,4.70
2011,04,29,01,16,4.70
2011,04,29,01,17,4.70
2011,04,29,01,18,4.70
2011,04,29,01,19,4.70
2011,04,29,01,20,4.70
2011,04,29,01,21,4.70
2011,04,29,01,22,4.70
2011,04,29,01,23,4.60
2011,04,29,01,24,4.60
2011,04,29,01,25,4.60
2011,04,29,01,26,4.60
2011,04,29,01,27,4.60
2011,04,29,01,28,4.60
2011,04,29,01,29,4.60
2011,04,29,01,30,4.60
2011,04,29,01,31,4.60
2011,04,29,01,32,4.60
2011,04,29,01,33,4.60
2011,04,29,01,34,4.60
2011,04,29,01,35,4.60
2011,04,29,01,36,4.60
2011,04,29,01,37,4.60
2011,04,29,01,38,4.60
2011,04,29,01,39,4.50
2011,04,29,01,40,4.50
2011,04,29,01,41,4.50
2011,04,29,01,42,4.50
2011,04,29,01,43,4.50
2011,04,29,01,44,4.50
2011,04,29,01,45,4.50
2011,04,29,01,46,4.50
2011,04,29,01,47,4.50
2011,04,29,01,48,4.40
2011,04,29,01,49,4.40
2011,04,29,01,50,4.40
2011,04,29,01,51,4.40
2011,04,29,01,52,4.40
2011,04,29,01,53,4.40
2011,04,29,01,54,4.40
2011,04,29,01,55,4.40
2011,04,29,01,56,4.40
2011,04,29,01,57,4.40
2011,04,29,01,58,4.30
2011,04,29,01,59,4.30
2011,04,29,02,00,4.30
2011,04,29,02,01,4.30
2011,04,29,02,02,4.30
2011,04,29,02,03,4.30
2011,04,29,02,04,4.30
2011,04,29,02,05,4.30
2011,04,29,02,06,4.30
2011,04,29,02,07,4.30
2011,04,29,02,08,4.30
2011,04,29,02,09,4.30
2011,04,29,02,10,4.30
2011,04,29,02,11,4.30
2011,04,29,02,12,4.30
2011,04,29,02,13,4.30
2011,04,29,02,14,4.30
2011,04,29,02,15,4.30
2011,04,29,02,16,4.30
2011,04,29,02,17,4.30
2011,04,29,02,18,4.30
2011,04,29,02,19,4.30
2011,04,29,02,20,4.30
2011,04,29,02,21,4.30
2011,04,29,02,22,4.30
2011,04,29,02,23,4.30
2011,04,29,02,24,4.30
2011,04,29,02,25,4.30
2011,04,29,02,26,4.30
2011,04,29,02,27,4.30
2011,04,29,02,28,4.30
2011,04,29,02,29,4.40
2011,04,29,02,30,4.40
2011,04,29,02,31,4.40
2011,04,29,02,32,4.40
2011,04,29,02,33,4.40
2011,04,29,02,34,4.40
2011,04,29,02,35,4.40
2011,04,29,02,36,4.30
2011,04,29,02,37,4.30
2011,04,29,02,38,4.30
2011,04,29,02,39,4.30
2011,04,29,02,40,4.30
2011,04,29,02,41,4.30
2011,04,29,02,42,4.30
2011,04,29,02,43,4.30
2011,04,29,02,44,4.30
2011,04,29,02,45,4.30
2011,04,29,02,46,4.30
2011,04,29,02,47,4.30
2011,04,29,02,48,4.30
2011,04,29,02,49,4.30
2011,04,29,02,50,4.30
2011,04,29,02,51,4.40
2011,04,29,02,52,4.40
2011,04,29,02,53,4.40
2011,04,29,02,54,4.40
2011,04,29,02,55,4.40
2011,04,29,02,56,4.40
2011,04,29,02,57,4.40
2011,04,29,02,58,4.40
2011,04,29,02,59,4.30
2011,04,29,03,00,4.30
2011,04,29,03,01,4.30
2011,04,29,03,02,4.30
2011,04,29,03,03,4.30
2011,04,29,03,06,4.20
2011,04,29,03,07,4.20
2011,04,29,03,08,4.20
2011,04,29,03,09,4.20
2011,04,29,03,10,4.20
2011,04,29,03,11,4.20
2011,04,29,03,12,4.20
2011,04,29,03,13,4.20
2011,04,29,03,14,4.20
2011,04,29,03,15,4.10
2011,04,29,03,16,4.10
2011,04,29,03,17,4.10
2011,04,29,03,18,4.10
2011,04,29,03,19,4.10
2011,04,29,03,20,4.10
2011,04,29,03,21,4.10
2011,04,29,03,22,4.10
2011,04,29,03,23,4.10
2011,04,29,03,24,4.10
2011,04,29,03,25,4.10
2011,04,29,03,26,4.10
2011,04,29,03,27,4.10
2011,04,29,03,28,4.10
2011,04,29,03,29,4.10
2011,04,29,03,30,4.10
2011,04,29,03,31,4.10
2011,04,29,03,32,4.10
2011,04,29,03,33,4.10
2011,04,29,03,34,4.10
2011,04,29,03,35,4.10
2011,04,29,03,36,4.10
2011,04,29,03,37,4.00
2011,04,29,03,38,4.00
2011,04,29,03,39,4.00
2011,04,29,03,40,3.90
2011,04,29,03,41,3.90
2011,04,29,03,42,3.90
2011,04,29,03,43,3.90
2011,04,29,03,44,3.90
2011,04,29,03,45,3.80
2011,04,29,03,46,3.80
2011,04,29,03,47,3.80
2011,04,29,03,48,3.80
2011,04,29,03,49,3.80
2011,04,29,03,50,3.80
2011,04,29,03,51,3.80
2011,04,29,03,52,3.80
2011,04,29,03,53,3.80
2011,04,29,03,54,3.80
2011,04,29,03,55,3.80
2011,04,29,03,56,3.80
2011,04,29,03,57,3.80
2011,04,29,03,58,3.80
2011,04,29,03,59,3.80
2011,04,29,04,00,3.80
2011,04,29,04,01,3.70
2011,04,29,04,02,3.70
2011,04,29,04,03,3.70
2011,04,29,04,04,3.70
2011,04,29,04,05,3.70
2011,04,29,04,06,3.70
2011,04,29,04,07,3.70
2011,04,29,04,08,3.70
2011,04,29,04,09,3.70
2011,04,29,04,10,3.70
2011,04,29,04,11,3.70
2011,04,29,04,12,3.70
2011,04,29,04,13,3.70
2011,04,29,04,14,3.70
2011,04,29,04,15,3.70
2011,04,29,04,16,3.70
2011,04,29,04,17,3.70
2011,04,29,04,18,3.70
2011,04,29,04,19,3.70
2011,04,29,04,20,3.70
2011,04,29,04,21,3.70
2011,04,29,04,22,3.70
2011,04,29,04,23,3.70
2011,04,29,04,24,3.70
2011,04,29,04,25,3.80
2011,04,29,04,26,3.80
2011,04,29,04,27,3.80
2011,04,29,04,28,3.80
2011,04,29,04,29,3.80
2011,04,29,04,30,3.80
2011,04,29,04,31,3.80
2011,04,29,04,32,3.80
2011,04,29,04,33,3.80
2011,04,29,04,34,3.80
2011,04,29,04,35,3.80
2011,04,29,04,36,3.80
2011,04,29,04,37,3.80
2011,04,29,04,38,3.80
2011,04,29,04,39,3.80
2011,04,29,04,40,3.80
2011,04,29,04,41,3.80
2011,04,29,04,42,3.80
2011,04,29,04,43,3.80
2011,04,29,04,44,3.80
2011,04,29,04,45,3.80
2011,04,29,04,46,3.80
2011,04,29,04,47,3.80
2011,04,29,04,48,3.80
2011,04,29,04,49,3.80
2011,04,29,04,50,3.80
2011,04,29,04,51,3.90
2011,04,29,04,52,3.90
2011,04,29,04,53,3.90
2011,04,29,04,54,3.90
2011,04,29,04,55,3.90
2011,04,29,04,56,3.90
2011,04,29,04,57,3.90
2011,04,29,04,58,3.90
2011,04,29,04,59,3.90
2011,04,29,05,00,3.90
2011,04,29,05,01,3.90
2011,04,29,05,02,3.90
2011,04,29,05,03,3.90
2011,04,29,05,04,3.90
2011,04,29,05,05,3.90
2011,04,29,05,06,3.90
2011,04,29,05,07,3.90
2011,04,29,05,08,3.90
2011,04,29,05,09,3.90
2011,04,29,05,10,3.90
2011,04,29,05,11,3.90
2011,04,29,05,12,3.90
2011,04,29,05,13,3.90
2011,04,29,05,14,3.90
2011,04,29,05,15,3.90
2011,04,29,05,16,3.90
2011,04,29,05,17,3.90
2011,04,29,05,18,3.90
2011,04,29,05,19,3.90
2011,04,29,05,20,3.90
2011,04,29,05,21,3.90
2011,04,29,05,22,3.90
2011,04,29,05,23,4.00
2011,04,29,05,24,4.00
2011,04,29,05,25,4.00
2011,04,29,05,26,4.00
2011,04,29,05,27,4.00
2011,04,29,05,28,4.00
2011,04,29,05,29,4.00
2011,04,29,05,30,4.00
2011,04,29,05,31,4.00
2011,04,29,05,32,4.00
2011,04,29,05,33,4.00
2011,04,29,05,34,4.00
2011,04,29,05,35,4.00
2011,04,29,05,36,4.00
2011,04,29,05,37,4.00
2011,04,29,05,38,4.00
2011,04,29,05,39,4.00
2011,04,29,05,40,4.00
2011,04,29,05,41,3.90
2011,04,29,05,42,3.90
2011,04,29,05,43,3.90
2011,04,29,05,44,3.90
2011,04,29,05,45,3.90
2011,04,29,05,46,3.90
2011,04,29,05,47,3.90
2011,04,29,05,48,3.90
2011,04,29,05,49,3.90
2011,04,29,05,50,3.90
2011,04,29,05,51,3.90
2011,04,29,05,52,3.90
2011,04,29,05,53,3.90
2011,04,29,05,54,3.90
2011,04,29,05,55,3.90
2011,04,29,05,56,4.00
2011,04,29,05,57,4.00
2011,04,29,05,58,4.00
2011,04,29,05,59,4.00
2011,04,29,06,00,4.00
2011,04,29,06,01,4.00
2011,04,29,06,02,4.00
2011,04,29,06,03,4.00
2011,04,29,06,04,4.00
2011,04,29,06,05,4.00
2011,04,29,06,06,4.00
2011,04,29,06,07,4.00
2011,04,29,06,08,4.00
2011,04,29,06,09,4.00
2011,04,29,06,10,4.00
2011,04,29,06,11,4.00
2011,04,29,06,12,4.00
2011,04,29,06,13,4.00
2011,04,29,06,14,4.00
2011,04,29,06,15,4.00
2011,04,29,06,16,4.00
2011,04,29,06,17,4.00
2011,04,29,06,18,4.00
2011,04,29,06,19,4.00
2011,04,29,06,20,4.00
2011,04,29,06,21,4.00
2011,04,29,06,22,4.00
2011,04,29,06,23,4.00
2011,04,29,06,24,3.90
2011,04,29,06,25,3.90
2011,04,29,06,26,3.90
2011,04,29,06,27,3.90
2011,04,29,06,28,3.90
2011,04,29,06,29,3.90
2011,04,29,06,30,4.00
2011,04,29,06,31,4.00
2011,04,29,06,32,4.00
2011,04,29,06,33,4.00
2011,04,29,06,34,4.00
2011,04,29,06,35,4.00
2011,04,29,06,36,4.00
2011,04,29,06,37,4.00
2011,04,29,06,38,4.00
2011,04,29,06,39,4.00
2011,04,29,06,40,4.00
2011,04,29,06,41,4.00
2011,04,29,06,42,4.00
2011,04,29,06,43,4.00
2011,04,29,06,44,4.00
2011,04,29,06,45,4.00
2011,04,29,06,46,4.00
2011,04,29,06,47,4.00
2011,04,29,06,48,4.00
2011,04,29,06,49,4.00
2011,04,29,06,50,4.00
2011,04,29,06,51,4.00
2011,04,29,06,52,4.10
2011,04,29,06,53,4.10
2011,04,29,06,54,4.10
2011,04,29,06,55,4.10
2011,04,29,06,56,4.10
2011,04,29,06,57,4.10
2011,04,29,06,58,4.10
2011,04,29,06,59,4.10
2011,04,29,07,00,4.10
2011,04,29,07,01,4.10
2011,04,29,07,02,4.10
2011,04,29,07,03,4.20
2011,04,29,07,04,4.20
2011,04,29,07,05,4.20
2011,04,29,07,06,4.20
2011,04,29,07,07,4.20
2011,04,29,07,08,4.20
2011,04,29,07,09,4.20
2011,04,29,07,10,4.20
2011,04,29,07,11,4.20
2011,04,29,07,12,4.20
2011,04,29,07,13,4.20
2011,04,29,07,14,4.30
2011,04,29,07,15,4.30
2011,04,29,07,16,4.30
2011,04,29,07,17,4.30
2011,04,29,07,18,4.30
2011,04,29,07,19,4.30
2011,04,29,07,20,4.30
2011,04,29,07,21,4.30
2011,04,29,07,22,4.30
2011,04,29,07,23,4.40
2011,04,29,07,24,4.40
2011,04,29,07,25,4.40
2011,04,29,07,26,4.40
2011,04,29,07,27,4.50
2011,04,29,07,28,4.50
2011,04,29,07,29,4.50
2011,04,29,07,30,4.50
2011,04,29,07,31,4.60
2011,04,29,07,32,4.60
2011,04,29,07,33,4.60
2011,04,29,07,34,4.60
2011,04,29,07,35,4.60
2011,04,29,07,36,4.50
2011,04,29,07,37,4.50
2011,04,29,07,38,4.50
2011,04,29,07,39,4.50
2011,04,29,07,40,4.50
2011,04,29,07,41,4.50
2011,04,29,07,42,4.50
2011,04,29,07,43,4.50
2011,04,29,07,44,4.50
2011,04,29,07,45,4.50
2011,04,29,07,46,4.50
2011,04,29,07,47,4.50
2011,04,29,07,48,4.60
2011,04,29,07,49,4.60
2011,04,29,07,50,4.60
2011,04,29,07,51,4.60
2011,04,29,07,52,4.60
2011,04,29,07,53,4.60
2011,04,29,07,54,4.70
2011,04,29,07,55,4.70
2011,04,29,07,56,4.70
2011,04,29,07,57,4.70
2011,04,29,07,58,4.70
2011,04,29,07,59,4.70
2011,04,29,08,00,4.70
2011,04,29,08,01,4.70
2011,04,29,08,02,4.70
2011,04,29,08,03,4.80
2011,04,29,08,04,4.80
2011,04,29,08,05,4.80
2011,04,29,08,06,4.80
2011,04,29,08,07,4.80
2011,04,29,08,08,4.80
2011,04,29,08,09,4.90
2011,04,29,08,10,4.90
2011,04,29,08,11,4.90
2011,04,29,08,12,4.90
2011,04,29,08,13,4.90
2011,04,29,08,14,4.90
2011,04,29,08,15,4.90
2011,04,29,08,16,4.90
2011,04,29,08,17,4.90
2011,04,29,08,18,4.90
2011,04,29,08,19,4.90
2011,04,29,08,20,4.90
2011,04,29,08,21,5.00
2011,04,29,08,22,4.90
2011,04,29,08,23,5.00
2011,04,29,08,24,5.00
2011,04,29,08,25,5.00
2011,04,29,08,26,5.00
2011,04,29,08,27,5.00
2011,04,29,08,28,5.00
2011,04,29,08,29,5.00
2011,04,29,08,30,5.20
2011,04,29,08,31,5.20
2011,04,29,08,32,5.20
2011,04,29,08,33,5.30
2011,04,29,08,34,5.30
2011,04,29,08,35,5.40
2011,04,29,08,36,5.40
2011,04,29,08,37,5.40
2011,04,29,08,38,5.50
2011,04,29,08,39,5.50
2011,04,29,08,40,5.60
2011,04,29,08,41,5.60
2011,04,29,08,42,5.70
2011,04,29,08,43,5.70
2011,04,29,08,44,5.70
2011,04,29,08,45,5.80
2011,04,29,08,46,5.80
2011,04,29,08,47,5.80
2011,04,29,08,48,5.90
2011,04,29,08,49,5.90
2011,04,29,08,50,5.90
2011,04,29,08,51,5.90
2011,04,29,08,52,5.90
2011,04,29,08,53,5.90
2011,04,29,08,54,5.90
2011,04,29,08,55,6.00
2011,04,29,08,56,6.00
2011,04,29,08,57,6.10
2011,04,29,08,58,6.10
2011,04,29,08,59,6.10
2011,04,29,09,00,6.10
2011,04,29,09,01,6.20
2011,04,29,09,02,6.20
2011,04,29,09,03,6.30
2011,04,29,09,04,6.30
2011,04,29,09,05,6.40
2011,04,29,09,06,6.40
2011,04,29,09,07,6.40
2011,04,29,09,08,6.50
2011,04,29,09,09,6.50
2011,04,29,09,10,6.50
2011,04,29,09,11,6.50
2011,04,29,09,12,6.50
2011,04,29,09,13,6.40
2011,04,29,09,14,6.40
2011,04,29,09,15,6.40
2011,04,29,09,16,6.40
2011,04,29,09,17,6.40
2011,04,29,09,18,6.50
2011,04,29,09,19,6.60
2011,04,29,09,20,6.60
2011,04,29,09,21,6.70
2011,04,29,09,22,6.70
2011,04,29,09,23,6.70
2011,04,29,09,24,6.80
2011,04,29,09,25,6.80
2011,04,29,09,26,6.90
2011,04,29,09,27,6.90
2011,04,29,09,28,6.90
2011,04,29,09,29,6.90
2011,04,29,09,30,6.90
2011,04,29,09,31,6.90
2011,04,29,09,32,6.90
2011,04,29,09,33,6.90
2011,04,29,09,34,6.90
2011,04,29,09,35,7.00
2011,04,29,09,36,7.00
2011,04,29,09,37,7.10
2011,04,29,09,38,7.10
2011,04,29,09,39,7.10
2011,04,29,09,40,7.10
2011,04,29,09,41,7.10
2011,04,29,09,42,7.10
2011,04,29,09,43,7.00
2011,04,29,09,44,7.00
2011,04,29,09,45,7.00
2011,04,29,09,46,7.00
2011,04,29,09,47,7.00
2011,04,29,09,48,7.00
2011,04,29,09,49,7.00
2011,04,29,09,50,7.00
2011,04,29,09,51,7.00
2011,04,29,09,52,7.10
2011,04,29,09,53,7.10
2011,04,29,09,54,7.20
2011,04,29,09,55,7.20
2011,04,29,09,56,7.30
2011,04,29,09,57,7.30
2011,04,29,09,58,7.30
2011,04,29,09,59,7.30
2011,04,29,10,00,7.20
2011,04,29,10,01,7.20
2011,04,29,10,02,7.20
2011,04,29,10,03,7.20
2011,04,29,10,04,7.20
2011,04,29,10,05,7.30
2011,04,29,10,06,7.30
2011,04,29,10,07,7.30
2011,04,29,10,08,7.40
2011,04,29,10,09,7.40
2011,04,29,10,10,7.50
2011,04,29,10,11,7.60
2011,04,29,10,12,7.70
2011,04,29,10,13,7.70
2011,04,29,10,14,7.80
2011,04,29,10,15,7.80
2011,04,29,10,16,7.80
2011,04,29,10,17,7.90
2011,04,29,10,18,7.80
2011,04,29,10,19,7.80
2011,04,29,10,20,7.70
2011,04,29,10,21,7.70
2011,04,29,10,22,7.60
2011,04,29,10,23,7.60
2011,04,29,10,24,7.70
2011,04,29,10,25,7.70
2011,04,29,10,26,7.70
2011,04,29,10,27,7.70
2011,04,29,10,28,7.80
2011,04,29,10,29,7.80
2011,04,29,10,30,7.90
2011,04,29,10,31,7.90
2011,04,29,10,32,8.00
2011,04,29,10,33,8.10
2011,04,29,10,34,8.10
2011,04,29,10,35,8.10
2011,04,29,10,36,8.00
2011,04,29,10,37,8.00
2011,04,29,10,38,7.90
2011,04,29,10,39,7.90
2011,04,29,10,40,7.90
2011,04,29,10,41,7.90
2011,04,29,10,42,7.90
2011,04,29,10,43,7.90
2011,04,29,10,44,8.00
2011,04,29,10,45,8.10
2011,04,29,10,46,8.20
2011,04,29,10,47,8.20
2011,04,29,10,48,8.20
2011,04,29,10,49,8.20
2011,04,29,10,50,8.30
2011,04,29,10,51,8.30
2011,04,29,10,52,8.30
2011,04,29,10,53,8.30
2011,04,29,10,54,8.30
2011,04,29,10,55,8.30
2011,04,29,10,56,8.40
2011,04,29,10,57,8.40
2011,04,29,10,58,8.30
2011,04,29,10,59,8.40
2011,04,29,11,00,8.40
2011,04,29,11,01,8.40
2011,04,29,11,02,8.40
2011,04,29,11,03,8.50
2011,04,29,11,04,8.50
2011,04,29,11,05,8.50
2011,04,29,11,06,8.50
2011,04,29,11,07,8.50
2011,04,29,11,08,8.60
2011,04,29,11,09,8.60
2011,04,29,11,10,8.60
2011,04,29,11,11,8.50
2011,04,29,11,12,8.50
2011,04,29,11,13,8.50
2011,04,29,11,14,8.50
2011,04,29,11,15,8.50
2011,04,29,11,16,8.60
2011,04,29,11,17,8.50
2011,04,29,11,18,8.50
2011,04,29,11,19,8.40
2011,04,29,11,20,8.40
2011,04,29,11,21,8.40
2011,04,29,11,22,8.50
2011,04,29,11,23,8.60
2011,04,29,11,24,8.60
2011,04,29,11,25,8.70
2011,04,29,11,26,8.80
2011,04,29,11,27,8.90
2011,04,29,11,28,9.00
2011,04,29,11,29,8.90
2011,04,29,11,30,8.90
2011,04,29,11,31,8.90
2011,04,29,11,32,8.90
2011,04,29,11,33,8.90
2011,04,29,11,34,8.90
2011,04,29,11,35,8.80
2011,04,29,11,36,8.80
2011,04,29,11,37,8.80
2011,04,29,11,38,8.80
2011,04,29,11,39,8.80
2011,04,29,11,40,8.80
2011,04,29,11,41,8.80
2011,04,29,11,42,8.90
2011,04,29,11,43,8.90
2011,04,29,11,44,8.90
2011,04,29,11,45,8.90
2011,04,29,11,46,8.90
2011,04,29,11,47,9.00
2011,04,29,11,48,9.00
2011,04,29,11,49,9.00
2011,04,29,11,50,9.10
2011,04,29,11,51,9.10
2011,04,29,11,52,9.10
2011,04,29,11,53,9.20
2011,04,29,11,54,9.30
2011,04,29,11,55,9.30
2011,04,29,11,56,9.30
2011,04,29,11,57,9.40
2011,04,29,11,58,9.50
2011,04,29,11,59,9.50
2011,04,29,12,00,9.60
2011,04,29,12,01,9.60
2011,04,29,12,02,9.60
2011,04,29,12,03,9.60
2011,04,29,12,04,9.60
2011,04,29,12,05,9.50
2011,04,29,12,06,9.40
2011,04,29,12,07,9.30
2011,04,29,12,08,9.30
2011,04,29,12,09,9.40
2011,04,29,12,10,9.30
2011,04,29,12,11,9.20
2011,04,29,12,12,9.20
2011,04,29,12,13,9.20
2011,04,29,12,14,9.20
2011,04,29,12,15,9.30
2011,04,29,12,16,9.30
2011,04,29,12,17,9.40
2011,04,29,12,18,9.40
2011,04,29,12,19,9.40
2011,04,29,12,20,9.40
2011,04,29,12,21,9.50
2011,04,29,12,22,9.50
2011,04,29,12,23,9.60
2011,04,29,12,24,9.60
2011,04,29,12,25,9.70
2011,04,29,12,26,9.60
2011,04,29,12,27,9.70
2011,04,29,12,28,9.70
2011,04,29,12,29,9.80
2011,04,29,12,30,9.80
2011,04,29,12,31,9.80
2011,04,29,12,32,9.80
2011,04,29,12,33,9.80
2011,04,29,12,34,9.70
2011,04,29,12,35,9.70
2011,04,29,12,36,9.70
2011,04,29,12,37,9.70
2011,04,29,12,38,9.70
2011,04,29,12,39,9.80
2011,04,29,12,40,9.90
2011,04,29,12,41,9.90
2011,04,29,12,42,9.80
2011,04,29,12,43,9.80
2011,04,29,12,44,9.90
2011,04,29,12,45,10.00
2011,04,29,12,46,9.90
2011,04,29,12,47,9.90
2011,04,29,12,48,9.90
2011,04,29,12,49,9.90
2011,04,29,12,50,10.00
2011,04,29,12,51,10.10
2011,04,29,12,52,10.20
2011,04,29,12,53,10.20
2011,04,29,12,54,10.40
2011,04,29,12,55,10.40
2011,04,29,12,56,10.50
2011,04,29,12,57,10.50
2011,04,29,12,58,10.60
2011,04,29,12,59,10.60
2011,04,29,13,00,10.50
2011,04,29,13,01,10.40
2011,04,29,13,02,10.30
2011,04,29,13,03,10.30
2011,04,29,13,04,10.30
2011,04,29,13,05,10.40
2011,04,29,13,06,10.50
2011,04,29,13,07,10.60
2011,04,29,13,08,10.70
2011,04,29,13,09,10.70
2011,04,29,13,10,10.60
2011,04,29,13,11,10.50
2011,04,29,13,12,10.50
2011,04,29,13,13,10.60
2011,04,29,13,14,10.70
2011,04,29,13,15,10.70
2011,04,29,13,16,10.80
2011,04,29,13,17,10.80
2011,04,29,13,18,10.80
2011,04,29,13,19,10.80
2011,04,29,13,20,10.90
2011,04,29,13,21,11.00
2011,04,29,13,22,11.10
2011,04,29,13,23,11.20
2011,04,29,13,24,11.20
2011,04,29,13,25,11.20
2011,04,29,13,26,11.20
2011,04,29,13,27,11.10
2011,04,29,13,28,11.10
2011,04,29,13,29,11.00
2011,04,29,13,30,10.90
2011,04,29,13,31,10.90
2011,04,29,13,32,10.80
2011,04,29,13,33,10.70
2011,04,29,13,34,10.60
2011,04,29,13,35,10.50
2011,04,29,13,36,10.50
2011,04,29,13,37,10.50
2011,04,29,13,38,10.50
2011,04,29,13,39,10.60
2011,04,29,13,40,10.60
2011,04,29,13,41,10.60
2011,04,29,13,42,10.70
2011,04,29,13,43,10.70
2011,04,29,13,44,10.70
2011,04,29,13,45,10.70
2011,04,29,13,46,10.70
2011,04,29,13,47,10.70
2011,04,29,13,48,10.70
2011,04,29,13,49,10.70
2011,04,29,13,50,10.70
2011,04,29,13,51,10.80
2011,04,29,13,52,10.70
2011,04,29,13,53,10.80
2011,04,29,13,54,10.80
2011,04,29,13,55,10.90
2011,04,29,13,56,11.00
2011,04,29,13,57,11.10
2011,04,29,13,58,11.20
2011,04,29,13,59,11.20
2011,04,29,14,00,11.20
2011,04,29,14,01,11.30
2011,04,29,14,02,11.30
2011,04,29,14,03,11.30
2011,04,29,14,04,11.30
2011,04,29,14,05,11.40
2011,04,29,14,06,11.40
2011,04,29,14,07,11.30
2011,04,29,14,08,11.30
2011,04,29,14,09,11.30
2011,04,29,14,10,11.30
2011,04,29,14,11,11.30
2011,04,29,14,12,11.20
2011,04,29,14,13,11.20
2011,04,29,14,14,11.20
2011,04,29,14,15,11.20
2011,04,29,14,16,11.20
2011,04,29,14,17,11.20
2011,04,29,14,18,11.10
2011,04,29,14,19,11.10
2011,04,29,14,20,11.00
2011,04,29,14,21,10.90
2011,04,29,14,22,11.00
2011,04,29,14,23,11.00
2011,04,29,14,24,11.10
2011,04,29,14,25,11.00
2011,04,29,14,26,11.00
2011,04,29,14,27,11.00
2011,04,29,14,28,11.00
2011,04,29,14,29,11.00
2011,04,29,14,30,11.10
2011,04,29,14,31,11.00
2011,04,29,14,32,11.00
2011,04,29,14,33,11.00
2011,04,29,14,34,10.90
2011,04,29,14,35,10.90
2011,04,29,14,36,10.90
2011,04,29,14,37,10.90
2011,04,29,14,38,10.90
2011,04,29,14,39,10.90
2011,04,29,14,40,10.90
2011,04,29,14,41,10.90
2011,04,29,14,42,10.80
2011,04,29,14,43,10.90
2011,04,29,14,44,10.90
2011,04,29,14,45,10.90
2011,04,29,14,46,10.90
2011,04,29,14,47,10.90
2011,04,29,14,48,10.90
2011,04,29,14,49,10.90
2011,04,29,14,50,10.90
2011,04,29,14,51,10.90
2011,04,29,14,52,10.80
2011,04,29,14,53,10.70
2011,04,29,14,54,10.70
2011,04,29,14,55,10.70
2011,04,29,14,56,10.70
2011,04,29,14,57,10.70
2011,04,29,14,58,10.70
2011,04,29,14,59,10.70
2011,04,29,15,00,10.70
2011,04,29,15,01,10.80
2011,04,29,15,02,10.80
2011,04,29,15,03,10.80
2011,04,29,15,04,10.80
2011,04,29,15,05,10.80
2011,04,29,15,06,10.80
2011,04,29,15,07,10.80
2011,04,29,15,08,10.70
2011,04,29,15,09,10.60
2011,04,29,15,10,10.60
2011,04,29,15,11,10.60
2011,04,29,15,12,10.50
2011,04,29,15,13,10.60
2011,04,29,15,14,10.60
2011,04,29,15,15,10.60
2011,04,29,15,16,10.50
2011,04,29,15,17,10.50
2011,04,29,15,18,10.40
2011,04,29,15,19,10.40
2011,04,29,15,20,10.50
2011,04,29,15,21,10.50
2011,04,29,15,22,10.40
2011,04,29,15,23,10.40
2011,04,29,15,24,10.50
2011,04,29,15,25,10.50
2011,04,29,15,26,10.40
2011,04,29,15,27,10.30
2011,04,29,15,28,10.30
2011,04,29,15,29,10.40
2011,04,29,15,30,10.30
2011,04,29,15,31,10.30
2011,04,29,15,32,10.30
2011,04,29,15,33,10.40
2011,04,29,15,34,10.40
2011,04,29,15,35,10.40
2011,04,29,15,36,10.30
2011,04,29,15,37,10.30
2011,04,29,15,38,10.30
2011,04,29,15,39,10.30
2011,04,29,15,40,10.30
2011,04,29,15,41,10.30
2011,04,29,15,42,10.30
2011,04,29,15,43,10.30
2011,04,29,15,44,10.40
2011,04,29,15,45,10.40
2011,04,29,15,46,10.40
2011,04,29,15,47,10.50
2011,04,29,15,48,10.50
2011,04,29,15,49,10.60
2011,04,29,15,50,10.70
2011,04,29,15,51,10.70
2011,04,29,15,52,10.60
2011,04,29,15,53,10.50
2011,04,29,15,54,10.50
2011,04,29,15,55,10.50
2011,04,29,15,56,10.40
2011,04,29,15,57,10.40
2011,04,29,15,58,10.30
2011,04,29,15,59,10.30
2011,04,29,16,00,10.20
2011,04,29,16,01,10.20
2011,04,29,16,02,10.20
2011,04,29,16,03,10.20
2011,04,29,16,04,10.20
2011,04,29,16,05,10.20
2011,04,29,16,06,10.10
2011,04,29,16,07,10.20
2011,04,29,16,08,10.20
2011,04,29,16,09,10.20
2011,04,29,16,10,10.20
2011,04,29,16,11,10.20
2011,04,29,16,12,10.30
2011,04,29,16,13,10.20
2011,04,29,16,14,10.20
2011,04,29,16,15,10.20
2011,04,29,16,16,10.20
2011,04,29,16,17,10.20
2011,04,29,16,18,10.20
2011,04,29,16,19,10.20
2011,04,29,16,20,10.30
2011,04,29,16,21,10.20
2011,04,29,16,22,10.20
2011,04,29,16,23,10.20
2011,04,29,16,24,10.20
2011,04,29,16,25,10.20
2011,04,29,16,26,10.20
2011,04,29,16,27,10.20
2011,04,29,16,28,10.10
2011,04,29,16,29,10.10
2011,04,29,16,30,10.10
2011,04,29,16,31,10.10
2011,04,29,16,32,10.20
2011,04,29,16,33,10.20
2011,04,29,16,34,10.20
2011,04,29,16,35,10.20
2011,04,29,16,36,10.20
2011,04,29,16,37,10.30
2011,04,29,16,38,10.30
2011,04,29,16,39,10.30
2011,04,29,16,40,10.30
2011,04,29,16,41,10.30
2011,04,29,16,42,10.40
2011,04,29,16,43,10.40
2011,04,29,16,44,10.30
2011,04,29,16,45,10.30
2011,04,29,16,46,10.20
2011,04,29,16,47,10.20
2011,04,29,16,48,10.20
2011,04,29,16,49,10.10
2011,04,29,16,50,10.10
2011,04,29,16,51,10.10
2011,04,29,16,52,10.10
2011,04,29,16,53,10.10
2011,04,29,16,54,10.10
2011,04,29,16,55,10.10
2011,04,29,16,56,10.10
2011,04,29,16,57,10.20
2011,04,29,16,58,10.20
2011,04,29,16,59,10.20
2011,04,29,17,00,10.10
2011,04,29,17,01,10.10
2011,04,29,17,02,10.10
2011,04,29,17,03,10.10
2011,04,29,17,04,10.10
2011,04,29,17,05,10.10
2011,04,29,17,06,10.10
2011,04,29,17,07,10.10
2011,04,29,17,08,10.00
2011,04,29,17,09,9.90
2011,04,29,17,10,9.90
2011,04,29,17,11,9.90
2011,04,29,17,12,9.90
2011,04,29,17,13,10.00
2011,04,29,17,14,9.90
2011,04,29,17,15,10.00
2011,04,29,17,16,10.00
2011,04,29,17,17,9.90
2011,04,29,17,18,9.90
2011,04,29,17,19,9.90
2011,04,29,17,20,10.00
2011,04,29,17,21,10.00
2011,04,29,17,22,10.00
2011,04,29,17,23,10.00
2011,04,29,17,24,10.00
2011,04,29,17,25,10.00
2011,04,29,17,26,10.00
2011,04,29,17,27,10.00
2011,04,29,17,28,9.90
2011,04,29,17,29,9.90
2011,04,29,17,30,9.80
2011,04,29,17,31,9.80
2011,04,29,17,32,9.80
2011,04,29,17,33,9.80
2011,04,29,17,34,9.80
2011,04,29,17,35,9.80
2011,04,29,17,36,9.90
2011,04,29,17,37,9.80
2011,04,29,17,38,9.80
2011,04,29,17,39,9.80
2011,04,29,17,40,9.80
2011,04,29,17,41,9.80
2011,04,29,17,42,9.80
2011,04,29,17,43,9.80
2011,04,29,17,44,9.90
2011,04,29,17,45,9.90
2011,04,29,17,46,9.80
2011,04,29,17,47,9.90
2011,04,29,17,48,9.80
2011,04,29,17,49,9.80
2011,04,29,17,50,9.80
2011,04,29,17,51,9.80
2011,04,29,17,52,9.80
2011,04,29,17,53,9.80
2011,04,29,17,54,9.80
2011,04,29,17,55,9.70
2011,04,29,17,56,9.70